Observations

Aujourd'hui

  • Température

    Max: 20.9° à 00:03:39

    Moy: 19.2°

    Min: 18.3° à 03:01:10

 

  • Humidité

    Max: 55% à 04:16:39

    Min: 44% à 00:03:39

 

  • Précipitation accumulée

    Aujourd'hui: 0 mm

    Ce mois-ci: 0 mm

    Cette année: 0 mm



HeureTemperaturePoint de roséeHumiditéDir. VentVitesseRafalesPressionPrecip.Precip. Accum.
04:14 18.6°C 9.5°C 55% 0 km/h 0 km/h 1001 hPa 0 mm/hr 0 mm
04:09 18.7°C 9.6°C 55% 0 km/h 0 km/h 1001 hPa 0 mm/hr 0 mm
04:04 18.8°C 9.6°C 55% 0 km/h 0 km/h 1001 hPa 0 mm/hr 0 mm
03:59 18.9°C 9.4°C 54% 0 km/h 0 km/h 1001 hPa 0 mm/hr 0 mm
03:54 19°C 9.5°C 54% 0 km/h 0 km/h 1001 hPa 0 mm/hr 0 mm
03:49 19.1°C 9.6°C 54% 0 km/h 0 km/h 1001 hPa 0 mm/hr 0 mm
03:44 19.1°C 9.6°C 54% 0 km/h 0 km/h 1001 hPa 0 mm/hr 0 mm
03:39 19.2°C 9.7°C 54% 0 km/h 0 km/h 1001 hPa 0 mm/hr 0 mm
03:34 19.2°C 9.7°C 54% 0 km/h 0 km/h 1001 hPa 0 mm/hr 0 mm
03:29 19.2°C 9.5°C 53% 0 km/h 0 km/h 1001 hPa 0 mm/hr 0 mm
03:24 19.2°C 9.7°C 54% 0 km/h 4 km/h 1001 hPa 0 mm/hr 0 mm
03:19 19.1°C 9.4°C 53% 0 km/h 4 km/h 1001 hPa 0 mm/hr 0 mm
03:14 19°C 9.2°C 53% 3.2 km/h 4.7 km/h 1001 hPa 0 mm/hr 0 mm
03:09 18.7°C 9.3°C 54% 0 km/h 4.7 km/h 1001 hPa 0 mm/hr 0 mm
03:04 18.4°C 9.2°C 55% 0 km/h 3.2 km/h 1001 hPa 0 mm/hr 0 mm
02:59 18.3°C 9.1°C 55% 0 km/h 0 km/h 1001 hPa 0 mm/hr 0 mm
02:54 18.3°C 9.1°C 55% 0 km/h 0 km/h 1001 hPa 0 mm/hr 0 mm
02:49 18.4°C 9°C 54% 0 km/h 0 km/h 1001 hPa 0 mm/hr 0 mm
02:44 18.4°C 9°C 54% 0 km/h 0 km/h 1001 hPa 0 mm/hr 0 mm
02:39 18.5°C 9.1°C 54% 0 km/h 0 km/h 1001 hPa 0 mm/hr 0 mm
02:34 18.5°C 9.1°C 54% 0 km/h 0 km/h 1001 hPa 0 mm/hr 0 mm
02:29 18.6°C 9.2°C 54% 0 km/h 0 km/h 1001 hPa 0 mm/hr 0 mm
02:24 18.7°C 9°C 53% 0 km/h 0 km/h 1001 hPa 0 mm/hr 0 mm
02:19 18.7°C 8.7°C 52% 0 km/h 0 km/h 1001 hPa 0 mm/hr 0 mm
02:14 18.7°C 8.7°C 52% 0 km/h 0 km/h 1001 hPa 0 mm/hr 0 mm
02:09 18.8°C 8.8°C 52% 0 km/h 0 km/h 1001 hPa 0 mm/hr 0 mm
02:04 18.9°C 8.9°C 52% 0 km/h 0 km/h 1001 hPa 0 mm/hr 0 mm
01:59 18.9°C 8.9°C 52% 0 km/h 0 km/h 1001 hPa 0 mm/hr 0 mm
01:54 19°C 9°C 52% 0 km/h 0 km/h 1001 hPa 0 mm/hr 0 mm
01:49 19°C 8.7°C 51% 0 km/h 0 km/h 1001 hPa 0 mm/hr 0 mm
01:44 19°C 8.7°C 51% 0 km/h 0 km/h 1001 hPa 0 mm/hr 0 mm
01:39 19.1°C 8.8°C 51% 0 km/h 0 km/h 1001 hPa 0 mm/hr 0 mm
01:34 19.1°C 8.5°C 50% 0 km/h 0 km/h 1001 hPa 0 mm/hr 0 mm
01:29 19.2°C 8.6°C 50% 0 km/h 0 km/h 1001 hPa 0 mm/hr 0 mm
01:24 19.2°C 8.3°C 49% 0 km/h 0 km/h 1001 hPa 0 mm/hr 0 mm
01:19 19.3°C 8.3°C 49% 0 km/h 0 km/h 1001 hPa 0 mm/hr 0 mm
01:14 19.4°C 8.1°C 48% 0 km/h 0 km/h 1001 hPa 0 mm/hr 0 mm
01:09 19.5°C 8.2°C 48% 0 km/h 0 km/h 1001 hPa 0 mm/hr 0 mm
01:04 19.5°C 7.9°C 47% 0 km/h 0 km/h 1001 hPa 0 mm/hr 0 mm
00:59 19.6°C 8°C 47% 0 km/h 0 km/h 1001 hPa 0 mm/hr 0 mm
00:54 19.7°C 8.1°C 47% 0 km/h 0 km/h 1001 hPa 0 mm/hr 0 mm
00:49 19.8°C 7.8°C 46% 0 km/h 0 km/h 1001 hPa 0 mm/hr 0 mm
00:44 19.9°C 7.9°C 46% 0 km/h 0 km/h 1001 hPa 0 mm/hr 0 mm
00:39 20.1°C 8.1°C 46% 0 km/h 0 km/h 1001 hPa 0 mm/hr 0 mm
00:34 20.2°C 7.9°C 45% 0 km/h 0 km/h 1001 hPa 0 mm/hr 0 mm
00:29 20.3°C 7.9°C 45% 0 km/h 0 km/h 1001 hPa 0 mm/hr 0 mm
00:24 20.4°C 8.4°C 46% 0 km/h 0 km/h 1001 hPa 0 mm/hr 0 mm
00:19 20.6°C 8.2°C 45% 0 km/h 0 km/h 1001 hPa 0 mm/hr 0 mm
00:14 20.7°C 8.3°C 45% 0 km/h 0 km/h 1001 hPa 0 mm/hr 0 mm
00:09 20.7°C 8.3°C 45% 0 km/h 0 km/h 1001 hPa 0 mm/hr 0 mm
00:04 20.9°C 8.1°C 44% 0 km/h 0 km/h 1001 hPa 0 mm/hr 0 mm